User: anonymous   Login
Location: Meriden
(44.0740°N, 93.3870°W)
Time: 03:40:43
(UTC-05:00)
Language:

AO-27 - Orbit

View from above orbital plane
View from above orbital plane
View from above satellite
View from above satellite

Ground track
Ground track

The orbit data is extracted from the following two-line orbital elements,

1 22825U 93061C   15208.09068436  .00000014  00000-0  22651-4 0  9995
2 22825 098.7111 158.2167 0008175 184.1062 235.4972 14.29893873138649
Epoch (UTC): 27 July 2015 02:10:35
Eccentricity: 0.0008175
inclination: 98.7111°
perigee height: 786 km
apogee height: 798 km
right ascension of ascending node: 158.2167°
argument of perigee: 184.1062°
revolutions per day: 14.29893873
mean anomaly at epoch: 235.4972°
orbit number at epoch: 13864

The dashed part of the orbit path shows where the satellite is in the earth's shadow,  

DLR